Regional Weather Roundup
Issued by NWS

Home | Current Version | Previous Version | Graphics & Text | Print | Product List | Glossary On
Versions: 1 2 3 4 5 6 7 8 9 10 11 12 13 14 15 16 17 18 19 20 21 22 23 24 25 26 27 28 29 30 31 32 33 34 35 36 37 38 39 40 41 42 43 44 45 46 47 48 49 50
000
ASUS45 KTFX 042310
RWRMT
MONTANA REGIONAL WEATHER ROUNDUP
NATIONAL WEATHER SERVICE GREAT FALLS MT
400 PM MST SUN DEC 04 2016

NOTE: "FAIR" INDICATES FEW OR NO CLOUDS BELOW 12000 FEET WITH NO
SIGNIFICANT WEATHER AND/OR OBSTRUCTIONS TO VISIBILITY.

MTZ001>007-043-050000-
WEST OF THE DIVIDE

CITY           SKY/WX    TMP DP  RH WIND       PRES   REMARKS
KALISPELL      MOCLDY    34  29  82 S5        29.60R
MISSOULA       MOCLDY    35  29  78 NW14G23   29.66R WCI  26
BUTTE          CLOUDY    33  25  72 S6        29.55F WCI  28
MULLAN PASS    LGT SNOW  21  18  88 VRB6G20   29.57R VSB 1   WCI  13
ANACONDA         N/A     36  25  64 W7G17     29.55S WCI  30
DEER LODGE       N/A     36  27  69 CALM      29.59R
EUREKA           N/A     36  21  55 SW13      29.60R WCI  27
HAMILTON         N/A     36  32  87 CALM      29.66R
LIBBY            N/A     32  28  86 CALM      29.63R
PLAINS           N/A     33  28  82 E3        29.69R
RONAN            N/A     33  29  86 CALM      29.71S
$$

MTZ008-052>055-050000-
SOUTHWEST MONTANA

CITY           SKY/WX    TMP DP  RH WIND       PRES   REMARKS
BOZEMAN        CLOUDY    39  26  59 SW14      29.54F WCI  31
DILLON         CLOUDY    35  25  66 SW21G28   29.57F WCI  24
W YELLOWSTONE  LGT SNOW  25  23  93 SW12G20   29.66F WCI  14
ENNIS          PTCLDY    32  23  69 S21G30    29.64S WCI  20
THREE FORKS      N/A     38 -49   2 S17       29.59F WCI  28
TWIN BRIDGES     N/A     34  25  70 SE3       29.63F
$$

MTZ009-010-012-014-046-048-049-054-050000-
EAST SLOPES AND CENTRAL MONTANA

CITY           SKY/WX    TMP DP  RH WIND       PRES   REMARKS
CUT BANK       CLOUDY    24  20  84 N23G33    29.52R WCI   9
GREAT FALLS    CLOUDY    36  25  64 W18G26    29.50R WCI  26
MALMSTROM AFB  MOCLDY    40  26  57 W18G31    29.50R
HELENA         FLURRIES  38  27  64 W18G33    29.53R WCI  28
AUGUSTA        FLURRIES  29  26  86 N29       29.49R WCI  14
BOWMANS CRNR     N/A     32  22  68 W23G29    29.48R WCI  19
CHOTEAU          N/A     32  28  86 NW9G15    29.54R WCI  24
CONRAD           N/A     31  31 100 W7        29.58S WCI  24
FAIRFIELD      SNOWSHWR  31  27  85 NW26G32   29.51R WCI  17
POWER          LGT SNOW  30  28  91 NW24G32   29.50R WCI  17
RAYNESFORD     MOCLDY    39  24  53 W16G33    29.48S WCI  30
ULM            MOCLDY    39  24  53 W17G24    29.50R WCI  30
$$

MTZ011-013-016-021-045-047-050-051-050000-
NORTH CENTRAL MONTANA

CITY           SKY/WX    TMP DP  RH WIND       PRES   REMARKS
HAVRE          CLOUDY    36  30  79 SW15      29.49R WCI  27
LEWISTOWN      CLOUDY    40  20  44 W17       29.48F
N BAR RANCH    CLOUDY    39  18  41 W9G17     29.50F
CHINOOK          N/A     37  27  65 NW3       29.47F
DENTON         MOCLDY    42  21  43 W30G48    29.43S
GEYSER         MOCLDY    39  20  46 W21G32    29.45F WCI  29
GRASS RANGE    MOCLDY    40  22  47 SW16      29.44F
JUDITH GAP       N/A     35  20  55 W14G23    29.48F WCI  26
ROY            MOCLDY    41  20  43 MISG      29.45F
STANFORD       MOCLDY    39  20  47 W18       29.47F WCI  29
WINIFRED       MOCLDY    41  20  42 MISG      29.45S
$$

MTZ017>020-022>027-061-062-050000-
NORTHEAST MONTANA

CITY           SKY/WX    TMP DP  RH WIND       PRES   REMARKS
GLASGOW        CLOUDY    35  29  78 W8        29.53F WCI  29
JORDAN           N/A     40  24  53 SW8       29.52F
SIDNEY         PTCLDY    32  25  75 SE8       29.60F WCI  25
WOLF POINT     PTCLDY    41  26  55 S7        29.54F
PLENTYWOOD       N/A     28  27  93 SE7       29.57F WCI  21
POPLAR           N/A     36  27  69 SE7       29.56F WCI  30
SCOBEY           N/A     32  20  61 SW1       29.55F
$$

MTZ028>42-056>058-050000-
SOUTHCENTRAL AND SOUTHEAST MONTANA

CITY           SKY/WX    TMP DP  RH WIND       PRES   REMARKS
BAKER          CLOUDY    30  21  69 S10       29.61F WCI  21
BILLINGS       CLOUDY    42  19  39 SW10      29.54F
LIVINGSTON     FLURRIES  37  23  56 SW29G47   29.51S WCI  25
MILES CITY     PTCLDY    37  21  52 W9        29.57F WCI  30
BIG TIMBER     MOCLDY    37  23  56 SW12      29.53F WCI  30
EKALAKA          N/A     37  17  44 S3        29.62
FORSYTH          N/A     41  25  52 SW5       29.57F
HARLOWTON        N/A     39  22  50 W17       29.49F WCI  30
LAUREL           N/A     42  15  33 S8        29.56F
ROUNDUP          N/A     39  17  41 NE3       29.48F
$$

REGIONAL REPORTS...DAKOTAS

CITY           SKY/WX    TMP DP  RH WIND       PRES   REMARKS
WILLISTON      PTCLDY    30  21  69 S5        29.61F
MINOT          CLEAR     26  19  74 SW7       29.63S WCI  18
DICKINSON      CLEAR     24  18  77 SW9       29.61F WCI  14
BEACH            N/A     28  21  74 SE6       29.63F WCI  22
CROSBY           N/A     23  23 100 S9        29.62S WCI  13
TIOGA            N/A     21  21 100 S5        29.62S
WATFORD CITY     N/A     25  18  74 CALM      29.61F
BISMARCK       CLEAR     27  20  75 SW6       29.69S WCI  20
GRAND FORKS    LGT SNOW  32  28  85 W8        29.64S FOG     WCI  25
FARGO          PTCLDY    33  27  78 W15       29.69R WCI  23
BUFFALO SD       N/A     38  24  57 S8        29.58F
RAPID CITY     PTCLDY    38  13  35 CALM      29.67F
$$

REGIONAL REPORTS...WYOMING/IDAHO/WASHINGTON

CITY           SKY/WX    TMP DP  RH WIND       PRES   REMARKS
GILLETTE       CLOUDY    36  20  52 VRB5      29.61F
SHERIDAN       MOCLDY    38  20  48 E9        29.59F WCI  31
BUFFALO WY     CLOUDY    40  15  36 NW3       29.59F
CODY           CLOUDY    36  25  64 VRB7      29.61F WCI  30
YELLOWSTONE LA   N/A     23  19  85 VRB7      29.66F WCI  15
IDAHO FALLS    CLOUDY    32  29  88 S29G38    29.76F FOG     WCI  18
SALMON         CLOUDY    28  27  93 CALM      29.65F
BOISE          LGT RAIN  42  38  85 SE10      29.79F
SPOKANE        CLOUDY    31  26  82 N20G30    29.75R WCI  19
$$

REGIONAL REPORTS...ALBERTA

CITY           SKY/WX    TMP DP  RH WIND       PRES   REMARKS
EDMONTON       LGT SNOW  21  18  86 NW14G21   29.68R VSB 3/4 WCI   8
CALGARY        CLOUDY    23  14  68 N10       29.64R WCI  12
LETHBRIDGE     LGT SNOW  25  23  93 N16G22    29.61R VSB 3/4 WCI  12
MEDICINE HAT   LGT SNOW  28  21  74 N20G28    29.58R DRFTSNOWWCI  15
WATERTON GATE    N/A     23  21  93 N2          N/A
MILK RIVER       N/A     25  21  86 NW17        N/A  WCI  11
ONEFOUR          N/A     30  27  86 W1          N/A
$$

REGIONAL REPORTS...SASKATCHEWAN

CITY           SKY/WX    TMP DP  RH WIND       PRES   REMARKS
SWIFT CURRENT  PTCLDY    19  18  93 NE7       29.51R WCI  10
REGINA         MOCLDY    19  18  93 SE9       29.57F WCI   9
SASKATOON      MOCLDY    23  18  80 SW8       29.59R WCI  14
CYPRESS HILLS    N/A     25  21  86 N6          N/A  WCI  18
VAL MARIE        N/A     34  28  80 SE8         N/A  WCI  27
ROCKGLEN         N/A     30  28  93 W2          N/A
ASSINIBOIA       N/A     25  18  74 NW23G30     N/A  WCI  10
$$



USA.gov is the U.S. government's official web portal to all federal, state and local government web resources and services.